User: anonymous   Login
Location: Newark
(43.2700°N, 11.0700°E)
Time: 06:53:56
(UTC+00:00)
Language:

XW-2A - Orbit

View from above orbital plane
View from above orbital plane
View from above satellite
View from above satellite

Ground track
Ground track

The orbit data is extracted from the following two-line orbital elements,

1 40903U 15049E   21299.12066058  .00005198  00000-0  10622-3 0  9993
2 40903  97.2197 353.1837 0010022 255.9515 158.8337 15.46551132342984
Epoch (UTC): 26 October 2021 02:53:45
Eccentricity: 0.0010022
inclination: 97.2197°
perigee height: 420 km
apogee height: 433 km
right ascension of ascending node: 353.1837°
argument of perigee: 255.9515°
revolutions per day: 15.46551132
mean anomaly at epoch: 158.8337°
orbit number at epoch: 34298

The dashed part of the orbit path shows where the satellite is in the earth's shadow,  

DLR